QPF
0.00 0.00 0.00 0.00 0.00 0.00 0.00 0.00 0.00 0.00 0.00 0.00 0.01 0.01 0.00 0.00 0.00 0.01 0.01 0.01 0.02 0.01 0.01 0.01 0.01 0.01 0.02 0.03 0.03 0.03 0.04 0.05 0.05 0.05 0.03 0.05 0.10 0.09 0.10 0.13 0.11 0.12 0.10 0.09
0.00 0.00 0.00 0.00 0.00 0.00 0.00 0.00 0.00 0.00 0.00 0.00 0.00 0.00 0.01 0.01 0.01 0.01 0.00 0.01 0.02 0.01 0.01 0.01 0.01 0.01 0.02 0.02 0.03 0.03 0.04 0.07 0.07 0.08 0.06 0.06 0.08 0.09 0.10 0.12 0.11 0.12 0.11 0.11
0.00 0.00 0.00 0.00 0.00 0.00 0.00 0.00 0.00 0.00 0.00 0.00 0.00 0.01 0.01 0.01 0.02 0.01 0.00 0.01 0.02 0.01 0.01 0.01 0.01 0.02 0.03 0.04 0.02 0.04 0.06 0.09 0.08 0.09 0.07 0.05 0.05 0.05 0.07 0.14 0.16 0.14 0.14 0.14
0.00 0.00 0.00 0.00 0.00 0.00 0.00 0.00 0.00 0.00 0.00 0.00 0.00 0.00 0.01 0.01 0.01 0.01 0.00 0.01 0.01 0.01 0.01 0.02 0.04 0.04 0.04 0.05 0.05 0.06 0.07 0.08 0.07 0.07 0.06 0.04 0.04 0.04 0.06 0.10 0.13 0.14 0.12 0.12
0.00 0.00 0.00 0.00 0.00 0.00 0.00 0.00 0.00 0.00 0.00 0.00 0.00 0.00 0.00 0.00 0.00 0.00 0.00 0.01 0.01 0.02 0.03 0.04 0.04 0.04 0.04 0.06 0.06 0.07 0.07 0.07 0.06 0.05 0.05 0.04 0.04 0.05 0.08 0.09 0.11 0.12 0.11 0.10
0.00 0.00 0.00 0.00 0.00 0.00 0.00 0.00 0.00 0.00 0.00 0.00 0.00 0.00 0.00 0.00 0.00 0.00 0.00 0.01 0.01 0.02 0.02 0.04 0.04 0.04 0.04 0.05 0.05 0.04 0.04 0.03 0.03 0.02 0.02 0.04 0.04 0.06 0.08 0.08 0.10 0.14 0.12 0.08
0.00 0.00 0.00 0.00 0.00 0.00 0.00 0.00 0.00 0.00 0.00 0.00 0.00 0.00 0.00 0.00 0.00 0.00 0.00 0.01 0.01 0.02 0.02 0.03 0.02 0.03 0.05 0.05 0.04 0.03 0.03 0.02 0.02 0.02 0.02 0.03 0.04 0.04 0.06 0.08 0.09 0.09 0.08 0.06
0.00 0.00 0.00 0.00 0.00 0.00 0.00 0.00 0.00 0.00 0.00 0.00 0.00 0.00 0.00 0.00 0.00 0.00 0.00 0.01 0.01 0.01 0.02 0.02 0.02 0.03 0.03 0.08 0.06 0.04 0.04 0.03 0.02 0.03 0.03 0.04 0.05 0.05 0.06 0.08 0.08 0.08 0.07 0.06
0.00 0.00 0.00 0.00 0.00 0.00 0.00 0.00 0.00 0.00 0.00 0.00 0.00 0.00 0.00 0.00 0.00 0.00 0.00 0.01 0.02 0.02 0.02 0.01 0.02 0.02 0.02 0.05 0.07 0.06 0.07 0.05 0.02 0.03 0.03 0.03 0.05 0.07 0.07 0.09 0.08 0.07 0.06 0.05
0.00 0.00 0.00 0.00 0.00 0.00 0.00 0.00 0.00 0.00 0.00 0.00 0.00 0.00 0.00 0.00 0.00 0.01 0.01 0.02 0.03 0.03 0.03 0.02 0.02 0.02 0.02 0.04 0.07 0.05 0.06 0.04 0.03 0.04 0.04 0.04 0.06 0.07 0.07 0.07 0.08 0.08 0.05 0.05
0.00 0.00 0.00 0.00 0.00 0.00 0.00 0.00 0.00 0.00 0.00 0.00 0.00 0.00 0.00 0.00 0.00 0.00 0.01 0.03 0.04 0.06 0.05 0.04 0.03 0.03 0.02 0.02 0.03 0.03 0.03 0.03 0.05 0.05 0.06 0.06 0.06 0.06 0.05 0.04 0.06 0.06 0.05 0.06
0.00 0.00 0.00 0.00 0.00 0.00 0.00 0.00 0.00 0.00 0.00 0.00 0.00 0.00 0.00 0.00 0.00 0.00 0.01 0.01 0.03 0.05 0.06 0.05 0.04 0.05 0.05 0.04 0.03 0.03 0.02 0.02 0.03 0.05 0.07 0.06 0.07 0.05 0.04 0.04 0.06 0.07 0.07 0.07
0.00 0.00 0.00 0.00 0.00 0.00 0.00 0.00 0.00 0.00 0.00 0.00 0.00 0.00 0.00 0.00 0.00 0.00 0.01 0.01 0.02 0.03 0.04 0.05 0.05 0.05 0.05 0.03 0.02 0.02 0.02 0.02 0.02 0.03 0.05 0.05 0.05 0.05 0.04 0.05 0.06 0.06 0.05 0.04
0.00 0.00 0.00 0.00 0.00 0.00 0.00 0.00 0.00 0.00 0.00 0.00 0.00 0.00 0.00 0.00 0.00 0.00 0.01 0.03 0.03 0.03 0.04 0.04 0.05 0.03 0.02 0.01 0.01 0.03 0.02 0.02 0.02 0.03 0.03 0.04 0.04 0.05 0.05 0.04 0.05 0.04 0.03 0.02
0.00 0.00 0.00 0.00 0.00 0.00 0.00 0.00 0.00 0.00 0.00 0.00 0.00 0.00 0.00 0.00 0.00 0.01 0.01 0.03 0.03 0.03 0.03 0.03 0.02 0.01 0.02 0.01 0.01 0.02 0.02 0.02 0.02 0.03 0.05 0.09 0.09 0.07 0.05 0.04 0.03 0.02 0.02 0.02
0.00 0.00 0.00 0.00 0.00 0.00 0.00 0.00 0.00 0.00 0.00 0.00 0.00 0.00 0.00 0.00 0.00 0.01 0.01 0.01 0.01 0.02 0.03 0.02 0.02 0.02 0.02 0.01 0.01 0.01 0.01 0.02 0.05 0.05 0.07 0.05 0.07 0.07 0.05 0.03 0.02 0.01 0.01 0.01
0.00 0.00 0.00 0.00 0.00 0.00 0.00 0.00 0.00 0.00 0.00 0.00 0.00 0.00 0.00 0.01 0.01 0.00 0.00 0.00 0.01 0.02 0.02 0.03 0.03 0.03 0.03 0.02 0.02 0.02 0.03 0.04 0.10 0.07 0.04 0.04 0.04 0.04 0.03 0.02 0.02 0.02 0.02 0.01
0.00 0.00 0.00 0.00 0.00 0.00 0.00 0.01 0.00 0.00 0.00 0.00 0.00 0.00 0.00 0.00 0.00 0.00 0.00 0.00 0.01 0.02 0.03 0.05 0.05 0.05 0.05 0.05 0.04 0.03 0.02 0.02 0.03 0.03 0.03 0.05 0.04 0.03 0.03 0.02 0.02 0.02 0.01 0.01
0.00 0.00 0.00 0.00 0.00 0.00 0.01 0.01 0.00 0.00 0.01 0.01 0.01 0.01 0.01 0.00 0.01 0.01 0.01 0.01 0.01 0.05 0.09 0.09 0.08 0.09 0.12 0.13 0.11 0.06 0.03 0.03 0.03 0.03 0.03 0.05 0.04 0.03 0.02 0.02 0.02 0.01 0.01 0.01
0.00 0.00 0.00 0.00 0.00 0.00 0.01 0.01 0.00 0.00 0.01 0.01 0.01 0.01 0.02 0.01 0.01 0.01 0.01 0.01 0.02 0.06 0.12 0.12 0.12 0.12 0.15 0.17 0.14 0.11 0.05 0.04 0.04 0.04 0.04 0.04 0.03 0.03 0.03 0.02 0.02 0.01 0.01 0.01
0.00 0.00 0.00 0.00 0.00 0.00 0.01 0.01 0.00 0.01 0.01 0.01 0.01 0.01 0.01 0.01 0.01 0.01 0.02 0.02 0.04 0.05 0.05 0.06 0.06 0.05 0.06 0.06 0.05 0.05 0.04 0.03 0.03 0.04 0.04 0.03 0.02 0.02 0.02 0.02 0.02 0.02 0.02 0.01
0.00 0.00 0.00 0.00 0.00 0.00 0.00 0.01 0.00 0.01 0.01 0.01 0.01 0.01 0.01 0.01 0.01 0.02 0.03 0.04 0.04 0.05 0.06 0.07 0.05 0.05 0.05 0.05 0.06 0.05 0.04 0.03 0.02 0.02 0.02 0.02 0.02 0.02 0.02 0.02 0.02 0.02 0.01 0.01
0.02 0.01 0.00 0.00 0.00 0.01 0.01 0.01 0.01 0.01 0.01 0.01 0.01 0.02 0.02 0.02 0.04 0.04 0.05 0.04 0.04 0.05 0.06 0.10 0.10 0.08 0.06 0.07 0.08 0.07 0.05 0.03 0.02 0.02 0.01 0.02 0.03 0.02 0.02 0.01 0.02 0.02 0.02 0.02
0.03 0.02 0.02 0.01 0.01 0.02 0.01 0.01 0.01 0.02 0.02 0.01 0.02 0.03 0.03 0.04 0.06 0.06 0.06 0.05 0.05 0.05 0.05 0.07 0.08 0.08 0.07 0.06 0.07 0.06 0.04 0.03 0.03 0.03 0.03 0.03 0.02 0.02 0.02 0.02 0.02 0.03 0.02 0.02
0.02 0.03 0.03 0.02 0.02 0.02 0.02 0.02 0.03 0.04 0.02 0.02 0.02 0.03 0.03 0.03 0.04 0.04 0.04 0.03 0.03 0.04 0.05 0.05 0.05 0.06 0.06 0.06 0.06 0.06 0.05 0.04 0.03 0.03 0.02 0.02 0.01 0.01 0.01 0.02 0.02 0.02 0.02 0.01
0.01 0.02 0.03 0.03 0.02 0.02 0.02 0.02 0.04 0.06 0.04 0.03 0.03 0.03 0.04 0.04 0.04 0.04 0.04 0.04 0.04 0.04 0.04 0.04 0.05 0.04 0.03 0.04 0.05 0.06 0.06 0.04 0.03 0.02 0.02 0.02 0.01 0.01 0.01 0.01 0.01 0.01 0.01 0.01
MSLP
1012.87 1013.69 1014.34 1014.81 1015.09 1015.21 1015.22 1015.13 1015.00 1014.83 1014.63 1014.43 1014.22 1014.02 1013.86 1013.75 1013.71 1013.75 1013.86 1014.03 1014.22 1014.40 1014.54 1014.62 1014.64 1014.63 1014.61 1014.61 1014.67 1014.81 1015.03 1015.30 1015.60 1015.88 1016.12 1016.28 1016.38 1016.40 1016.40 1016.39 1016.41 1016.49 1016.64 1016.84
1013.52 1014.15 1014.62 1014.92 1015.09 1015.18 1015.23 1015.26 1015.27 1015.27 1015.22 1015.11 1014.93 1014.69 1014.43 1014.19 1014.01 1013.92 1013.93 1014.05 1014.23 1014.43 1014.61 1014.73 1014.77 1014.75 1014.69 1014.64 1014.63 1014.70 1014.86 1015.11 1015.40 1015.71 1015.98 1016.18 1016.30 1016.33 1016.30 1016.26 1016.24 1016.28 1016.39 1016.58
1013.93 1014.35 1014.60 1014.74 1014.83 1014.93 1015.08 1015.28 1015.51 1015.73 1015.86 1015.87 1015.74 1015.46 1015.09 1014.68 1014.32 1014.06 1013.94 1013.97 1014.11 1014.33 1014.55 1014.72 1014.80 1014.80 1014.73 1014.64 1014.57 1014.59 1014.71 1014.93 1015.22 1015.54 1015.84 1016.07 1016.21 1016.25 1016.21 1016.15 1016.09 1016.08 1016.16 1016.33
1014.13 1014.32 1014.37 1014.38 1014.43 1014.59 1014.88 1015.31 1015.81 1016.28 1016.62 1016.77 1016.68 1016.35 1015.84 1015.24 1014.66 1014.19 1013.90 1013.81 1013.90 1014.10 1014.36 1014.58 1014.72 1014.75 1014.70 1014.60 1014.51 1014.48 1014.56 1014.76 1015.04 1015.37 1015.69 1015.95 1016.11 1016.16 1016.12 1016.03 1015.94 1015.90 1015.95 1016.09
1014.17 1014.15 1014.04 1013.96 1014.01 1014.28 1014.77 1015.46 1016.24 1016.98 1017.54 1017.82 1017.76 1017.36 1016.69 1015.88 1015.05 1014.34 1013.85 1013.61 1013.61 1013.79 1014.07 1014.34 1014.54 1014.63 1014.62 1014.53 1014.44 1014.39 1014.44 1014.61 1014.88 1015.20 1015.53 1015.81 1015.98 1016.04 1016.01 1015.91 1015.80 1015.73 1015.73 1015.84
1014.15 1013.95 1013.73 1013.61 1013.72 1014.13 1014.84 1015.79 1016.85 1017.83 1018.58 1018.97 1018.91 1018.43 1017.59 1016.55 1015.47 1014.53 1013.82 1013.42 1013.33 1013.47 1013.76 1014.08 1014.35 1014.50 1014.53 1014.48 1014.39 1014.33 1014.36 1014.50 1014.75 1015.06 1015.38 1015.66 1015.85 1015.92 1015.89 1015.78 1015.66 1015.56 1015.53 1015.60
1014.12 1013.81 1013.53 1013.42 1013.62 1014.19 1015.11 1016.30 1017.59 1018.77 1019.66 1020.11 1020.03 1019.45 1018.45 1017.20 1015.90 1014.73 1013.83 1013.29 1013.10 1013.21 1013.50 1013.86 1014.19 1014.40 1014.49 1014.46 1014.39 1014.32 1014.33 1014.44 1014.66 1014.95 1015.26 1015.54 1015.73 1015.81 1015.79 1015.68 1015.54 1015.42 1015.36 1015.38
1014.12 1013.77 1013.49 1013.44 1013.74 1014.46 1015.55 1016.92 1018.37 1019.67 1020.63 1021.09 1020.97 1020.29 1019.15 1017.73 1016.26 1014.93 1013.89 1013.24 1012.99 1013.06 1013.36 1013.75 1014.12 1014.38 1014.51 1014.51 1014.44 1014.37 1014.36 1014.44 1014.63 1014.90 1015.19 1015.46 1015.66 1015.75 1015.73 1015.63 1015.48 1015.34 1015.24 1015.22
1014.17 1013.83 1013.60 1013.63 1014.04 1014.86 1016.07 1017.52 1019.03 1020.37 1021.32 1021.75 1021.56 1020.80 1019.57 1018.06 1016.49 1015.08 1013.99 1013.29 1013.00 1013.07 1013.37 1013.78 1014.18 1014.46 1014.61 1014.63 1014.56 1014.48 1014.45 1014.51 1014.67 1014.91 1015.20 1015.46 1015.66 1015.76 1015.76 1015.66 1015.52 1015.36 1015.23 1015.16
1014.24 1013.95 1013.80 1013.92 1014.40 1015.29 1016.52 1017.97 1019.44 1020.71 1021.59 1021.94 1021.68 1020.87 1019.61 1018.10 1016.54 1015.15 1014.08 1013.41 1013.14 1013.22 1013.53 1013.95 1014.34 1014.63 1014.78 1014.80 1014.73 1014.64 1014.59 1014.63 1014.78 1015.01 1015.28 1015.55 1015.76 1015.88 1015.90 1015.82 1015.68 1015.51 1015.35 1015.23
1014.27 1014.08 1014.03 1014.22 1014.75 1015.63 1016.80 1018.14 1019.48 1020.60 1021.34 1021.58 1021.27 1020.44 1019.23 1017.80 1016.36 1015.10 1014.14 1013.56 1013.36 1013.47 1013.80 1014.20 1014.58 1014.85 1014.97 1014.98 1014.90 1014.80 1014.75 1014.79 1014.94 1015.17 1015.45 1015.74 1015.97 1016.11 1016.16 1016.10 1015.97 1015.80 1015.63 1015.47
1014.24 1014.17 1014.21 1014.46 1014.99 1015.80 1016.84 1018.00 1019.12 1020.04 1020.60 1020.71 1020.35 1019.57 1018.46 1017.20 1015.96 1014.89 1014.12 1013.69 1013.59 1013.75 1014.08 1014.47 1014.81 1015.03 1015.13 1015.11 1015.02 1014.93 1014.90 1014.96 1015.12 1015.38 1015.69 1016.00 1016.26 1016.44 1016.51 1016.49 1016.38 1016.23 1016.05 1015.87
1014.16 1014.20 1014.32 1014.61 1015.10 1015.79 1016.65 1017.57 1018.42 1019.09 1019.45 1019.44 1019.05 1018.33 1017.38 1016.34 1015.35 1014.55 1014.00 1013.74 1013.75 1013.97 1014.31 1014.66 1014.94 1015.12 1015.18 1015.15 1015.07 1015.00 1015.00 1015.10 1015.31 1015.61 1015.95 1016.30 1016.60 1016.82 1016.93 1016.94 1016.87 1016.74 1016.57 1016.39
1014.06 1014.19 1014.38 1014.67 1015.09 1015.64 1016.28 1016.92 1017.49 1017.89 1018.04 1017.91 1017.51 1016.87 1016.11 1015.31 1014.60 1014.06 1013.75 1013.67 1013.79 1014.06 1014.38 1014.69 1014.92 1015.05 1015.08 1015.05 1014.99 1014.97 1015.03 1015.20 1015.47 1015.82 1016.21 1016.60 1016.94 1017.20 1017.35 1017.41 1017.38 1017.28 1017.15 1016.99
1014.00 1014.21 1014.44 1014.71 1015.04 1015.42 1015.82 1016.19 1016.47 1016.60 1016.56 1016.32 1015.90 1015.36 1014.77 1014.21 1013.76 1013.47 1013.37 1013.44 1013.65 1013.94 1014.25 1014.51 1014.69 1014.79 1014.81 1014.79 1014.79 1014.84 1014.98 1015.23 1015.57 1015.98 1016.43 1016.86 1017.23 1017.52 1017.72 1017.82 1017.84 1017.79 1017.71 1017.60
1014.07 1014.31 1014.54 1014.77 1014.99 1015.19 1015.36 1015.47 1015.48 1015.38 1015.15 1014.81 1014.39 1013.93 1013.49 1013.13 1012.89 1012.80 1012.86 1013.05 1013.32 1013.61 1013.89 1014.11 1014.26 1014.34 1014.37 1014.40 1014.46 1014.60 1014.84 1015.18 1015.61 1016.08 1016.57 1017.03 1017.43 1017.74 1017.97 1018.11 1018.19 1018.21 1018.19 1018.15
1014.31 1014.55 1014.75 1014.91 1015.00 1015.04 1014.99 1014.86 1014.64 1014.33 1013.95 1013.52 1013.08 1012.68 1012.35 1012.14 1012.07 1012.12 1012.29 1012.53 1012.82 1013.10 1013.35 1013.53 1013.65 1013.73 1013.80 1013.90 1014.05 1014.30 1014.64 1015.07 1015.57 1016.09 1016.61 1017.09 1017.50 1017.83 1018.09 1018.27 1018.39 1018.48 1018.54 1018.58
1014.75 1014.94 1015.07 1015.13 1015.10 1014.97 1014.74 1014.41 1013.99 1013.51 1013.01 1012.51 1012.06 1011.69 1011.45 1011.33 1011.35 1011.48 1011.70 1011.96 1012.24 1012.48 1012.69 1012.84 1012.95 1013.05 1013.17 1013.35 1013.61 1013.95 1014.39 1014.90 1015.46 1016.02 1016.55 1017.03 1017.44 1017.78 1018.05 1018.26 1018.44 1018.60 1018.73 1018.86
1015.34 1015.44 1015.48 1015.42 1015.25 1014.97 1014.58 1014.09 1013.53 1012.94 1012.34 1011.80 1011.35 1011.01 1010.81 1010.75 1010.81 1010.97 1011.20 1011.44 1011.68 1011.88 1012.04 1012.17 1012.28 1012.41 1012.59 1012.84 1013.18 1013.62 1014.14 1014.71 1015.30 1015.88 1016.41 1016.88 1017.28 1017.61 1017.89 1018.13 1018.35 1018.57 1018.78 1018.98
1016.00 1015.98 1015.89 1015.70 1015.40 1014.99 1014.48 1013.88 1013.22 1012.56 1011.93 1011.38 1010.93 1010.62 1010.46 1010.43 1010.52 1010.68 1010.88 1011.09 1011.27 1011.42 1011.54 1011.64 1011.75 1011.90 1012.12 1012.44 1012.85 1013.34 1013.91 1014.52 1015.12 1015.69 1016.21 1016.66 1017.04 1017.37 1017.65 1017.92 1018.18 1018.45 1018.73 1019.00
1016.62 1016.46 1016.23 1015.91 1015.49 1014.98 1014.38 1013.71 1013.02 1012.35 1011.72 1011.20 1010.80 1010.53 1010.41 1010.41 1010.51 1010.66 1010.83 1010.99 1011.12 1011.22 1011.29 1011.36 1011.46 1011.62 1011.86 1012.21 1012.64 1013.17 1013.75 1014.36 1014.95 1015.51 1016.00 1016.43 1016.79 1017.11 1017.40 1017.69 1017.99 1018.31 1018.63 1018.95
1017.10 1016.80 1016.43 1015.99 1015.48 1014.89 1014.24 1013.57 1012.89 1012.25 1011.69 1011.24 1010.91 1010.72 1010.65 1010.69 1010.80 1010.95 1011.09 1011.21 1011.30 1011.34 1011.37 1011.40 1011.47 1011.61 1011.85 1012.18 1012.61 1013.12 1013.68 1014.26 1014.83 1015.35 1015.82 1016.22 1016.58 1016.90 1017.21 1017.52 1017.85 1018.20 1018.55 1018.90
1017.36 1016.93 1016.45 1015.92 1015.34 1014.72 1014.07 1013.42 1012.81 1012.26 1011.79 1011.45 1011.23 1011.13 1011.14 1011.24 1011.38 1011.53 1011.67 1011.76 1011.80 1011.80 1011.78 1011.76 1011.79 1011.88 1012.07 1012.35 1012.74 1013.20 1013.71 1014.24 1014.76 1015.25 1015.70 1016.09 1016.45 1016.78 1017.11 1017.45 1017.80 1018.17 1018.55 1018.90
1017.40 1016.87 1016.31 1015.72 1015.11 1014.49 1013.88 1013.30 1012.78 1012.35 1012.01 1011.80 1011.70 1011.71 1011.82 1011.98 1012.17 1012.34 1012.48 1012.55 1012.56 1012.52 1012.44 1012.37 1012.34 1012.36 1012.48 1012.69 1013.00 1013.38 1013.83 1014.30 1014.77 1015.23 1015.65 1016.05 1016.42 1016.78 1017.14 1017.50 1017.87 1018.26 1018.63 1018.99
1017.23 1016.64 1016.04 1015.43 1014.83 1014.25 1013.71 1013.22 1012.82 1012.51 1012.32 1012.24 1012.26 1012.39 1012.58 1012.82 1013.05 1013.25 1013.39 1013.46 1013.45 1013.37 1013.25 1013.12 1013.01 1012.97 1013.00 1013.12 1013.34 1013.64 1014.00 1014.41 1014.84 1015.27 1015.69 1016.10 1016.49 1016.88 1017.27 1017.66 1018.05 1018.44 1018.81 1019.15
1016.94 1016.34 1015.73 1015.15 1014.59 1014.07 1013.61 1013.23 1012.94 1012.75 1012.68 1012.71 1012.84 1013.05 1013.32 1013.61 1013.88 1014.10 1014.25 1014.31 1014.28 1014.18 1014.02 1013.85 1013.68 1013.56 1013.51 1013.55 1013.68 1013.90 1014.20 1014.55 1014.94 1015.36 1015.78 1016.21 1016.64 1017.06 1017.48 1017.89 1018.29 1018.68 1019.03 1019.34
Thickness
5810 5795 5785 5794 5800 5800 5795 5787 5783 5793 5808 5801 5792 5791 5797 5800 5798 5794 5792 5791 5789 5788 5790 5789 5787 5785 5780 5775 5771 5767 5764 5761 5759 5755 5752 5749 5748 5748 5748 5748 5747 5745 5745 5744
5789 5786 5800 5805 5805 5801 5795 5787 5787 5796 5807 5799 5789 5789 5797 5799 5798 5799 5796 5792 5791 5789 5787 5787 5786 5784 5780 5776 5772 5768 5765 5762 5760 5757 5755 5753 5751 5750 5750 5749 5748 5746 5745 5744
5785 5793 5806 5803 5798 5795 5793 5789 5790 5791 5796 5795 5788 5781 5789 5798 5801 5801 5800 5798 5796 5793 5788 5786 5785 5783 5780 5776 5773 5771 5766 5763 5761 5759 5756 5753 5751 5749 5748 5747 5747 5746 5745 5744
5788 5798 5802 5799 5797 5797 5786 5802 5800 5794 5779 5767 5778 5757 5781 5789 5793 5797 5799 5798 5797 5796 5793 5789 5786 5783 5780 5778 5775 5771 5768 5764 5761 5759 5755 5752 5748 5745 5746 5746 5746 5745 5744 5743
5783 5796 5797 5794 5800 5803 5798 5803 5797 5789 5776 5763 5768 5759 5769 5785 5785 5795 5801 5802 5801 5798 5795 5791 5789 5786 5783 5780 5775 5771 5767 5765 5762 5759 5756 5752 5749 5747 5746 5746 5745 5745 5744 5743
5787 5801 5803 5803 5809 5809 5803 5790 5779 5766 5758 5746 5761 5756 5761 5777 5790 5799 5804 5805 5803 5801 5798 5794 5792 5788 5783 5780 5775 5771 5766 5764 5762 5759 5756 5753 5750 5747 5745 5744 5743 5743 5743 5743
5776 5789 5802 5809 5798 5799 5792 5766 5741 5739 5730 5737 5757 5756 5764 5794 5803 5807 5808 5807 5806 5803 5799 5794 5791 5787 5783 5779 5775 5771 5766 5763 5761 5758 5756 5754 5751 5748 5745 5743 5742 5741 5741 5741
5754 5758 5789 5801 5795 5785 5781 5769 5739 5730 5727 5734 5751 5752 5778 5804 5811 5814 5813 5811 5807 5803 5800 5796 5793 5789 5785 5781 5776 5771 5766 5762 5760 5758 5755 5754 5752 5748 5746 5744 5742 5741 5740 5740
5746 5755 5788 5801 5805 5792 5773 5764 5765 5740 5736 5732 5741 5760 5785 5805 5807 5809 5809 5807 5804 5802 5800 5797 5794 5790 5785 5780 5776 5772 5767 5763 5760 5757 5755 5753 5751 5748 5745 5743 5742 5740 5739 5739
5760 5757 5778 5791 5796 5789 5784 5765 5747 5735 5721 5723 5741 5752 5764 5790 5797 5802 5803 5803 5803 5802 5799 5797 5794 5790 5785 5781 5777 5772 5768 5764 5759 5756 5754 5752 5750 5747 5744 5742 5739 5738 5737 5736
5765 5753 5763 5775 5778 5773 5770 5760 5745 5731 5734 5721 5726 5747 5789 5794 5799 5800 5802 5804 5803 5800 5798 5796 5793 5789 5785 5781 5775 5771 5767 5762 5758 5754 5752 5749 5747 5744 5742 5739 5737 5735 5734 5733
5758 5743 5740 5759 5779 5787 5782 5767 5752 5741 5732 5727 5729 5750 5802 5802 5803 5802 5801 5802 5802 5799 5796 5794 5790 5786 5783 5778 5773 5769 5766 5761 5757 5753 5750 5747 5744 5741 5738 5736 5734 5732 5730 5729
5754 5737 5727 5737 5752 5770 5771 5765 5760 5747 5730 5721 5728 5757 5799 5800 5801 5802 5801 5800 5798 5796 5793 5790 5787 5783 5779 5775 5771 5767 5764 5760 5756 5752 5747 5743 5740 5737 5734 5732 5730 5729 5727 5724
5760 5736 5731 5728 5738 5757 5763 5761 5756 5751 5732 5727 5739 5763 5787 5794 5795 5797 5798 5797 5795 5793 5791 5786 5782 5779 5775 5772 5768 5764 5761 5758 5754 5750 5745 5740 5736 5733 5730 5728 5726 5724 5722 5719
5753 5736 5742 5749 5759 5764 5767 5764 5759 5760 5753 5746 5757 5763 5783 5793 5797 5797 5796 5794 5792 5788 5786 5784 5780 5776 5772 5768 5765 5762 5758 5755 5752 5747 5741 5737 5733 5730 5726 5723 5721 5719 5716 5714
5739 5734 5739 5745 5755 5760 5761 5765 5764 5766 5762 5762 5768 5770 5790 5795 5795 5793 5792 5791 5788 5786 5784 5782 5778 5773 5769 5765 5762 5757 5754 5751 5748 5743 5738 5733 5729 5725 5721 5718 5715 5713 5710 5708
5725 5727 5723 5723 5744 5750 5741 5758 5762 5765 5767 5768 5765 5778 5788 5787 5790 5792 5791 5790 5788 5786 5783 5778 5774 5770 5766 5763 5759 5754 5750 5747 5743 5738 5734 5730 5726 5721 5717 5714 5710 5707 5704 5701
5721 5717 5710 5712 5727 5717 5741 5767 5770 5768 5770 5773 5778 5783 5785 5789 5792 5793 5793 5791 5788 5785 5780 5776 5771 5768 5765 5760 5756 5751 5746 5741 5738 5733 5729 5726 5722 5717 5712 5708 5704 5700 5697 5695
5722 5715 5702 5699 5706 5720 5744 5761 5763 5761 5762 5773 5775 5780 5782 5785 5785 5784 5790 5791 5789 5785 5781 5776 5772 5768 5762 5758 5752 5747 5742 5738 5734 5729 5725 5722 5718 5712 5708 5702 5698 5695 5691 5688
5711 5712 5702 5695 5701 5703 5734 5760 5767 5763 5752 5773 5775 5775 5776 5778 5768 5776 5788 5788 5785 5781 5777 5773 5769 5764 5758 5753 5749 5743 5738 5733 5729 5725 5721 5717 5713 5708 5703 5697 5692 5689 5685 5682
5695 5694 5693 5693 5699 5710 5738 5753 5759 5738 5746 5768 5771 5773 5774 5774 5778 5784 5786 5783 5780 5776 5772 5769 5765 5759 5753 5748 5744 5738 5733 5729 5725 5721 5716 5711 5707 5702 5697 5691 5687 5683 5679 5675
5683 5683 5683 5685 5692 5704 5738 5743 5741 5743 5757 5763 5766 5769 5771 5773 5778 5780 5779 5776 5773 5769 5766 5764 5758 5752 5747 5743 5738 5732 5727 5724 5720 5716 5710 5704 5700 5696 5691 5686 5681 5677 5673 5669
5676 5682 5683 5689 5697 5715 5726 5733 5742 5747 5751 5757 5760 5764 5767 5768 5770 5772 5770 5768 5765 5763 5760 5758 5753 5746 5741 5737 5734 5726 5722 5718 5714 5709 5702 5697 5692 5688 5684 5680 5675 5669 5665 5662
5673 5679 5681 5688 5700 5711 5720 5728 5736 5743 5747 5753 5757 5760 5762 5761 5763 5763 5762 5760 5758 5755 5753 5750 5745 5740 5734 5731 5728 5723 5717 5713 5707 5701 5695 5690 5685 5680 5676 5673 5668 5664 5660 5656
5665 5671 5674 5679 5692 5703 5713 5719 5726 5734 5742 5747 5750 5753 5754 5754 5754 5754 5752 5750 5750 5747 5745 5742 5739 5734 5729 5724 5720 5716 5711 5706 5700 5694 5689 5683 5678 5673 5669 5664 5660 5657 5653 5651
5658 5663 5668 5673 5686 5690 5698 5709 5718 5723 5729 5735 5738 5741 5744 5746 5745 5745 5743 5741 5740 5738 5736 5733 5730 5726 5721 5717 5712 5708 5704 5699 5694 5687 5681 5676 5671 5666 5662 5657 5651 5647 5645 5643